Location: Newark
(47.5833°N, 8.1500°E)
Time: 07:27:18
(UTC+00:00)

Tiros 1 despin weight - Pass Details

Date: 02 November 2020
Orbit: 593 x 642 km, 48.2° (Epoch: 28 November)

Event Time Altitude Azimuth Distance (km) Brightness Sun altitude
Rises 20:43:36 0° 201° (SSW) 2,888 - -45.5°
Reaches altitude 10° 20:46:31 10° 182° (S) 1,976 - -45.9°
Maximum altitude 20:49:35 18° 140° (SE) 1,514 - -46.3°
Drops below altitude 10° 20:52:37 10° 97° (E) 1,962 - -46.8°
Sets 20:55:30 0° 78° (ENE) 2,860 - -47.1°
